DW1850 Weather Reports


Display with metric or nautical units.
time (UTC)temp
F
wind
direction
speed
MPH
gust
MPH
rain 1hr
in
rain 24hr
in
rain mn
in
humidity
%
barometer
mb
20260904052949 81 153 7.0 13.0 0.00 0.00 0.00 82 1010.2
20260904045949 81 147 2.0 14.0 0.00 0.00 0.00 81 1010.1
20260904042948 81 136 0.0 13.0 0.00 0.00 0.00 81 1010.0
20260904035947 81 128 0.0 10.0 0.00 0.00 0.00 80 1009.9
20260904032947 81 122 0.0 13.0 0.00 0.00 0.00 79 1009.6
20260904025945 82 121 0.0 18.0 0.00 0.00 0.00 77 1009.3
20260904022945 83 132 7.0 14.0 0.00 0.00 0.00 73 1008.8
20260904012943 85 124 1.0 22.0 0.00 0.00 0.00 69 1008.2
20260904005943 86 106 7.0 16.0 0.00 0.00 0.00 68 1007.9
20260904002942 88 119 2.0 15.0 0.00 0.00 0.00 66 1008.1
20260903235941 90 132 4.0 17.0 0.00 0.00 0.00 65 1007.8
20260903232940 91 104 9.0 21.0 0.00 0.00 0.00 64 1007.6
20260903230009 94 106 4.0 21.0 0.00 0.00 0.00 61 1007.3
20260903223008 96 113 10.0 18.0 0.00 0.00 0.00 52 1006.9
20260903220008 96 117 4.0 18.0 0.00 0.00 0.00 52 1006.9
20260903213007 98 130 7.0 16.0 0.00 0.00 0.00 49 1007.2
20260903210007 98 101 13.0 14.0 0.00 0.00 0.00 48 1007.4
20260903203005 99 107 0.0 13.0 0.00 0.00 0.00 46 1007.9
20260903200005 98 104 2.0 10.0 0.00 0.00 0.00 48 1008.2
20260903193004 100 153 0.0 7.0 0.00 0.00 0.00 44 1008.4
20260903190004 98 165 0.0 7.0 0.00 0.00 0.00 49 1009.0
20260903183002 96 157 0.0 5.0 0.00 0.00 0.00 52 1009.5
20260903180002 94 184 0.0 10.0 0.00 0.00 0.00 55 1009.9
20260903173001 92 189 0.0 9.0 0.00 0.00 0.00 58 1010.1
20260903170000 92 201 3.0 10.0 0.00 0.00 0.00 59 1010.3
20260903162959 90 196 9.0 14.0 0.00 0.00 0.00 61 1010.5
20260903155959 88 181 4.0 13.0 0.00 0.00 0.00 69 1010.3
20260903152958 86 182 6.0 16.0 0.00 0.00 0.00 72 1010.4
20260903145957 85 212 3.0 15.0 0.00 0.00 0.00 76 1010.1
20260903142956 84 219 4.0 14.0 0.00 0.00 0.00 79 1010.3
20260903135955 82 195 4.0 15.0 0.00 0.00 0.00 83 1010.4
20260903132955 81 190 6.0 16.0 0.00 0.00 0.00 85 1010.4
20260903125954 80 179 9.0 12.0 0.00 0.00 0.00 88 1010.4
20260903122954 80 176 6.0 13.0 0.00 0.00 0.00 89 1010.3
20260903115953 79 175 4.0 9.0 0.00 0.00 0.00 89 1010.1
20260903112952 80 176 7.0 10.0 0.00 0.00 0.00 89 1010.3
20260903105951 80 171 8.0 14.0 0.00 0.00 0.00 89 1010.0
20260903102950 80 172 7.0 13.0 0.00 0.00 0.00 89 1010.0
20260903092948 80 174 0.0 12.0 0.00 0.00 0.00 87 1010.1
20260903082947 81 166 8.0 13.0 0.00 0.00 0.00 85 1010.4
20260903075946 81 178 0.0 14.0 0.00 0.00 0.00 83 1010.3
20260903072945 81 159 9.0 14.0 0.00 0.00 0.00 81 1010.3
20260903065945 82 168 7.0 13.0 0.00 0.00 0.00 78 1010.4
20260903062944 83 166 2.0 14.0 0.00 0.00 0.00 75 1010.7
20260903055943 83 171 6.0 14.0 0.00 0.00 0.00 71 1010.7